User: anonymous   Login
Location: Wildlife_Club
(35.6000°N, 81.4330°W)
Time: 07:31:12
(UTC-04:00)
Language:

Tiros 1 - Orbit

View from above orbital plane
View from above orbital plane
View from above satellite
View from above satellite

Ground track
Ground track

The orbit data is extracted from the following two-line orbital elements,

1    29U 60002B   19166.66394834 -.00000135 +00000-0 +10921-4 0  9992
2    29 048.3790 244.2626 0023481 099.5974 260.7592 14.74307380164279
Epoch (UTC): 15 June 2019 15:56:05
Eccentricity: 0.0023481
inclination: 48.3790°
perigee height: 631 km
apogee height: 664 km
right ascension of ascending node: 244.2626°
argument of perigee: 99.5974°
revolutions per day: 14.74307380
mean anomaly at epoch: 260.7592°
orbit number at epoch: 16427

The dashed part of the orbit path shows where the satellite is in the earth's shadow,  

DLR